Location: City of Prairie View
(39.8320°N, 99.5734°W)
Time: 16:40:54
(UTC+00:00)

Daily predictions for brighter satellites

Satellite Brightness Start Highest point End
(mag) Time Altitude Azimuth Time Altitude Azimuth Time Altitude Azimuth
NOSS 2-2 (E) 4.0 12:05:46 38° N 12:05:46 38° N 12:08:37 10° NNE
Cosmos 2228 4.3 12:03:07 10° SSE 12:07:15 42° E 12:11:25 10° NNE
ATLAS 3B R/B 4.5 12:02:11 10° NNW 12:07:27 24° NE 12:12:47 10° E
Cosmos 1602 Rocket 3.5 12:08:49 50° NW 12:09:32 58° W 12:13:46 10° S
MOS 1-B 4.2 12:03:43 10° NNE 12:09:32 84° WNW 12:15:19 10° SSW
Cosmos 2341 Rocket 4.4 12:06:07 10° N 12:12:22 66° E 12:18:31 10° SSE
USA 215 3.2 12:05:50 10° SE 12:12:22 82° SW 12:16:29 25° NW
SKYMED 2 3.6 12:10:58 10° S 12:15:14 57° W 12:17:02 32° NW
Cosmos 773 Rocket 4.1 12:11:41 17° SW 12:15:37 50° WNW 12:20:46 10° N
NOSS 3-2 (A) 4.4 12:09:10 13° NNW 12:16:06 66° NE 12:24:31 10° SE
STARLINK-46 4.3 12:18:35 23° ENE 12:18:35 23° ENE 12:19:48 10° E
BREEZE-M DEB (TANK) 4.4 12:07:00 17° WSW 12:19:01 56° NNW 12:23:58 10° NE
Cosmos 2344 3.7 12:17:05 19° WSW 12:22:23 50° NW 12:30:12 10° NNE
Nadezhda 1 Rocket 4.1 12:17:34 10° SSW 12:23:21 45° WNW 12:29:10 10° N
STARLINK-34 3.8 12:20:26 17° SW 12:23:25 67° SE 12:27:25 10° NE
Okean O Rocket 1.6 12:20:37 10° NNE 12:25:06 85° ESE 12:29:32 10° SSW
STARLINK-24 3.8 12:22:35 16° SW 12:25:40 70° SE 12:29:39 10° NE
Cosmos 1758 Rocket 3.5 12:21:49 10° N 12:26:12 88° E 12:30:36 10° S
STARLINK-81 3.9 12:23:08 14° SW 12:26:33 64° SE 12:30:33 10° NE
Cosmos 2082 3.9 12:23:39 23° NW 12:26:51 48° WSW 12:32:17 10° S
STARLINK-54 3.7 12:25:10 16° SW 12:28:21 74° SE 12:32:23 10° NE
Helios 1A Rocket 3.2 12:25:08 10° NNE 12:29:16 72° ESE 12:33:23 10° S
CZ-4B DEB 4.2 12:23:59 10° N 12:29:28 62° WNW 12:34:53 10° SSW
STARLINK-77 3.8 12:26:18 13° SW 12:29:50 69° SE 12:33:51 10° NE
STARLINK-25 3.7 12:27:57 13° SW 12:31:31 72° SE 12:35:32 10° NE
Cosmos 923 Rocket 4.3 12:26:47 10° S 12:31:59 72° ESE 12:37:16 10° NNE
STARLINK-48 4.4 12:32:14 27° NW 12:32:44 28° NNW 12:36:09 10° NNE
STARLINK-71 3.5 12:30:02 15° SW 12:33:21 83° SE 12:37:24 10° NE
CENTAUR R/B 3.9 12:26:27 10° NNW 12:34:15 50° NE 12:42:39 10° ESE
STARLINK-79 3.6 12:31:05 12° SW 12:34:47 77° SE 12:38:49 10° NE
USA 116 4.2 12:30:31 10° S 12:35:28 63° WSW 12:39:58 10° NNW
CZ-3 R/B 3.2 12:22:38 14° WSW 12:36:24 40° SSW 12:41:53 10° SE
STARLINK-78 3.6 12:32:44 12° SW 12:36:29 80° SE 12:40:31 10° NE
STARLINK-57 3.5 12:34:35 12° SW 12:38:13 87° SE 12:42:16 10° NE
ADEOS Rocket 3.2 12:33:31 10° SSE 12:38:55 62° ENE 12:44:24 10° N
ATLAS 2AS CENTAUR R/B 3.2 12:31:05 10° SSW 12:38:59 84° ESE 12:47:03 10° NE
Cosmos 2297 Rocket 3.5 12:39:08 19° W 12:39:23 19° W 12:43:18 10° SW
STARLINK-49 3.5 12:35:53 11° SW 12:39:45 85° SE 12:43:48 10° NE
STARLINK-27 3.5 12:37:29 11° SW 12:41:24 88° SSE 12:45:27 10° NE
Cosmos 2322 Rocket 3.7 12:37:03 10° S 12:42:15 39° ESE 12:47:30 10° NE
STARLINK-74 3.5 12:39:04 10° SW 12:43:03 89° NNW 12:47:06 10° NE
Cosmos 44 Rocket 3.3 12:40:34 18° NW 12:43:56 56° WSW 12:48:35 10° SSE
STARLINK-39 3.5 12:40:42 10° SW 12:44:42 86° NW 12:48:45 10° NE
Cosmos 2058 Rocket 3.5 12:41:09 10° S 12:45:31 65° E 12:49:53 10° NNE
SL-4 R/B 2.7 12:43:27 17° NNW 12:45:44 36° NNE 12:48:56 10° E
USA 32 4.0 12:40:53 10° N 12:46:07 77° W 12:51:21 10° S
STARLINK 3.4 12:42:20 10° SW 12:46:21 83° NW 12:50:24 10° NE
Cosmos 2218 Rocket 4.3 12:41:16 10° N 12:47:41 76° E 12:54:01 10° SSE
STARLINK-69 3.4 12:44:20 11° SW 12:48:13 75° NW 12:52:15 10° NE
SMAP 3.6 12:44:34 10° NNE 12:49:12 61° E 12:53:47 10° S
STARLINK-21 3.4 12:45:41 10° SW 12:49:42 78° NW 12:53:44 10° NE
Cosmos 2227 Rocket 3.6 12:50:18 16° W 12:51:12 17° W 12:54:41 10° SW
USA 238 DEB 3.9 12:44:12 10° NW 12:51:28 76° WSW 12:58:54 10° SSE
USA 238 3.9 12:44:19 10° NW 12:51:34 77° WSW 12:59:00 10° SSE
STARLINK-45 3.5 12:47:41 10° WSW 12:51:36 68° NW 12:55:37 10° NE
Cosmos 1825 Rocket 3.6 12:48:21 10° NNW 12:52:34 52° W 12:56:46 10° S
STARLINK-70 3.5 12:49:09 10° WSW 12:53:09 69° NW 12:57:10 10° NE
Lacrosse 5 4.1 12:49:02 10° S 12:53:22 29° ESE 12:57:43 10° ENE
STARLINK-76 3.5 12:50:41 10° WSW 12:54:41 70° NW 12:58:43 10° NE
STARLINK 3.5 12:52:21 10° WSW 12:56:21 68° NW 13:00:22 10° NE
STARLINK-32 3.5 12:53:59 10° WSW 12:57:58 66° NW 13:02:00 10° NE
STARLINK-26 4.3 12:56:27 18° WNW 12:58:08 26° NNW 13:01:11 10° NNE
STARLINK-33 3.4 12:55:26 11° WSW 12:58:53 54° NW 13:02:29 10° NE
Cosmos 2263 Rocket 2.7 12:53:59 10° NNW 12:59:36 63° ENE 13:05:12 10° SE
STARLINK-40 3.5 12:55:40 10° WSW 12:59:39 64° NW 13:03:40 10° NE
H-2A R/B 2.7 12:55:55 10° N 12:59:51 83° WNW 13:03:44 10° SSW
ATLAS 2A CENTAUR R/B 4.4 12:56:47 10° SSW 13:00:30 21° SE 13:09:02 10° E
STARLINK-42 3.5 12:57:09 10° WSW 13:00:54 56° NW 13:04:40 10° NE
STARLINK-44 3.5 12:57:18 10° WSW 13:01:18 62° NW 13:05:18 10° NE
STARLINK-64 3.5 12:57:57 10° WSW 13:01:43 57° NW 13:05:30 10° NE
STARLINK-37 3.6 12:59:06 10° WSW 13:03:04 57° NW 13:07:03 10° NE
STARLINK-66 3.5 13:00:04 10° WSW 13:03:35 48° NW 13:07:08 10° NE
COSMO-SKYMED 1 4.1 13:00:48 10° SW 13:03:35 17° W 13:05:41 13° WNW
STARLINK-36 3.6 13:00:40 10° WSW 13:04:38 58° NW 13:08:37 10° NE
CZ-4 R/B 4.3 13:02:43 10° NE 13:06:05 22° E 13:09:24 10° SSE
STARLINK-68 3.7 13:02:33 10° WSW 13:06:29 51° NW 13:10:26 10° NE
STARLINK-63 3.7 13:04:07 10° WSW 13:08:03 52° NW 13:12:00 10° NE
Cosmos 1606 Rocket 4.2 13:04:28 10° SW 13:08:31 34° WNW 13:12:35 10° NNW
STARLINK-55 3.7 13:05:22 10° WSW 13:08:50 43° NW 13:12:19 10° NE
STARLINK-35 3.7 13:05:40 10° WSW 13:09:36 53° NW 13:13:33 10° NE
Cosmos 1908 3.3 13:06:21 10° SSW 13:10:12 57° W 13:14:05 10° N
Orbus 7S? 4.3 13:07:39 10° NW 13:11:14 67° NE 13:19:18 10° SE
STARLINK-51 3.7 13:07:19 10° WSW 13:11:14 51° NW 13:15:11 10° NE
Cosmos 1726 Rocket 4.0 13:07:08 10° SSW 13:11:19 40° WNW 13:15:30 10° N
Cosmos 1300 4.2 13:08:36 10° SSE 13:12:11 40° E 13:15:47 10° NNE
STARLINK-30 3.8 13:09:00 10° WSW 13:12:55 50° NW 13:16:51 10° NE
Abrixas rocket 3.7 13:11:30 10° NW 13:14:03 24° NNE 13:16:36 10° ENE
STARLINK-72 3.8 13:10:40 10° WSW 13:14:34 48° NW 13:18:29 10° NE
COSMOS 2455 3.4 13:09:48 10° WSW 13:15:19 37° NW 13:20:53 10° NNE
STARLINK-50 3.8 13:12:20 10° WSW 13:16:14 47° NW 13:20:08 10° NE
STARLINK-61 4.4 13:12:43 10° W 13:16:16 31° NNW 13:19:50 10° NE
Cosmos 1703 3.4 13:12:48 10° NNW 13:16:40 52° W 13:20:29 10° S
Cosmos 1953 3.9 13:14:29 10° WSW 13:16:55 15° WNW 13:19:21 10° NW
Cosmos 1726 3.2 13:14:01 10° SW 13:17:02 24° WNW 13:20:04 10° NNW
Cosmos 1959 Rocket 4.5 13:11:21 10° NNW 13:17:24 65° W 13:23:27 10° S
STARLINK-59 3.9 13:14:09 10° WSW 13:18:00 44° NNW 13:21:53 10° NE
SL-16 R/B 2.2 13:13:49 10° SSW 13:19:29 85° WNW 13:25:12 10° NNE
STARLINK-56 3.9 13:15:42 10° WSW 13:19:33 44° NNW 13:23:26 10° NE
STARLINK-28 4.0 13:16:54 10° W 13:20:08 33° NNW 13:23:24 10° NE
Starlink (trailer) 4.0 13:17:23 10° WSW 13:21:14 43° NNW 13:25:05 10° NE
Cosmos 1680 Rocket 3.7 13:17:11 10° SW 13:22:21 53° WNW 13:27:35 10° N
STARLINK-38 4.0 13:19:03 10° WSW 13:22:53 42° NNW 13:26:44 10° NE
Envisat 3.2 13:18:13 10° NNE 13:23:19 79° ESE 13:28:24 10° S
Transit 2A Rocket 4.4 13:19:14 10° SW 13:23:33 69° WNW 13:27:52 10° NNE
STARLINK-65 4.0 13:20:43 10° WSW 13:24:32 41° NNW 13:28:22 10° NE
STARLINK 1040 3.7 13:22:10 10° SSW 13:24:54 48° SE 13:27:41 10° ENE
AQUARIUS 4.2 13:20:35 10° N 13:25:00 59° WNW 13:29:25 10° SSW
ALOS 3.9 13:23:08 10° NW 13:25:19 13° WNW 13:27:29 10° W
STARLINK-53 4.1 13:22:30 10° WSW 13:26:17 38° NNW 13:30:04 10° NE
Cosmos 2366 rocket 4.2 13:20:07 10° NNW 13:26:19 58° W 13:32:31 10° S
FALCON 9 DEB 3.2 13:25:06 10° W 13:26:30 19° NNW 13:27:56 10° NNE
Cosmos 1371 Rocket 4.2 13:23:31 10° NNW 13:28:49 78° ENE 13:34:09 10° SSE
STARLINK 1029 4.1 13:26:40 10° SSW 13:29:41 46° SE 13:32:42 10° ENE
CZ-4B R/B 4.0 13:25:28 10° N 13:30:10 29° WNW 13:34:46 10° WSW
Cosmos 2360 Rocket 3.3 13:26:47 10° S 13:32:14 52° ESE 13:37:44 10° NNE
